TimeCET,TemperatureF,Dew PointF,Humidity,Sea Level PressureIn,VisibilityMPH,Wind Direction,Wind SpeedMPH,Gust SpeedMPH,PrecipitationIn,Events,Conditions,WindDirDegrees,DateUTC
7:00 AM,39.2,39.2,100,29.80,3.7,SW,8.1,-,N/A,Rain,Rain,220,2013-03-25 06:00:00
7:30 AM,39.2,39.2,100,29.83,3.1,SW,9.2,-,N/A,Rain,Rain,230,2013-03-25 06:30:00
8:00 AM,39.2,39.2,100,29.80,3.1,SW,6.9,-,N/A,Rain,Rain,220,2013-03-25 07:00:00
9:00 AM,39.2,39.2,100,29.80,1.2,South,8.1,-,N/A,Rain,Rain,180,2013-03-25 08:00:00
9:30 AM,41.0,41.0,100,29.80,1.2,South,10.4,-,N/A,Rain,Rain,180,2013-03-25 08:30:00
10:00 AM,41.0,41.0,100,29.80,3.7,SSW,10.4,-,N/A,Rain,Light Rain,200,2013-03-25 09:00:00
11:00 AM,42.8,42.8,100,29.77,6.2,SSW,12.7,-,N/A,Rain,Rain,200,2013-03-25 10:00:00
11:30 AM,44.6,44.6,100,29.77,3.7,SSW,16.1,-,N/A,Rain,Light Rain,210,2013-03-25 10:30:00
12:00 PM,44.6,44.6,100,29.74,2.5,SW,19.6,-,N/A,Rain,Rain,220,2013-03-25 11:00:00
12:30 PM,46.4,46.4,100,29.74,2.5,SW,15.0,-,N/A,Rain,Rain,220,2013-03-25 11:30:00
1:00 PM,46.4,46.4,100,29.74,2.5,SW,12.7,-,N/A,Rain,Rain,230,2013-03-25 12:00:00
1:30 PM,48.2,48.2,100,29.71,4.3,SW,15.0,-,N/A,Rain,Rain,230,2013-03-25 12:30:00
2:00 PM,48.2,48.2,100,29.71,4.3,WSW,23.0,-,N/A,Rain,Rain,240,2013-03-25 13:00:00
2:30 PM,50.0,50.0,100,29.68,2.5,WSW,24.2,-,N/A,Rain,Rain,250,2013-03-25 13:30:00
3:00 PM,50.0,50.0,100,29.68,6.2,WSW,26.5,39.1,N/A,Rain,Light Rain,250,2013-03-25 14:00:00
3:30 PM,51.8,50.0,94,29.68,5.0,WSW,29.9,-,N/A,Rain,Rain,250,2013-03-25 14:30:00
4:00 PM,51.8,50.0,94,29.68,6.2,WSW,25.3,36.8,N/A,Rain,Rain,250,2013-03-25 15:00:00
4:30 PM,51.8,50.0,94,29.65,6.2,WSW,26.5,-,N/A,Rain,Rain,250,2013-03-25 15:30:00
5:00 PM,50.0,50.0,100,29.65,3.1,WSW,24.2,-,N/A,Rain,Rain,240,2013-03-25 16:00:00
5:30 PM,50.0,50.0,100,29.62,1.9,WSW,25.3,-,N/A,Rain,Rain,240,2013-03-25 16:30:00
6:00 PM,50.0,50.0,100,29.62,6.2,WSW,26.5,40.3,N/A,Rain,Light Rain,240,2013-03-25 17:00:00
6:30 PM,50.0,50.0,100,29.62,6.2,WSW,29.9,41.4,N/A,,Overcast,240,2013-03-25 17:30:00
7:00 PM,50.0,50.0,100,29.62,3.7,WSW,28.8,-,N/A,,Overcast,250,2013-03-25 18:00:00
7:30 PM,50.0,50.0,100,29.62,2.5,WSW,28.8,-,N/A,,Overcast,250,2013-03-25 18:30:00
8:00 PM,50.0,50.0,100,29.65,1.2,WSW,31.1,-,N/A,,Overcast,250,2013-03-25 19:00:00
8:30 PM,50.0,50.0,100,29.65,3.7,WSW,29.9,-,N/A,Rain,Rain,250,2013-03-25 19:30:00
9:00 PM,50.0,50.0,100,29.68,6.2,West,25.3,-,N/A,,Mostly Cloudy,260,2013-03-25 20:00:00
9:30 PM,50.0,50.0,100,29.68,6.2,West,24.2,-,N/A,,Mostly Cloudy,260,2013-03-25 20:30:00